Regional Weather Roundup
Issued by NWS New Orleans/Baton Rouge, LA

Home | Current Version | Previous Version | Text Only | Print | Product List | Glossary On
Versions: 1 2 3 4 5 6 7 8 9 10 11 12 13 14 15 16 17 18 19 20 21 22 23 24 25 26 27 28 29 30 31 32 33 34 35 36 37 38 39 40 41 42 43 44 45 46 47 48 49 50
000
ASUS44 KLIX 280811
RWRLIX
NEW ORLEANS REGIONAL WEATHER ROUNDUP
NATIONAL WEATHER SERVICE NEW ORLEANS LA
300 AM CDT SUN AUG 28 2016

NOTE: "FAIR" INDICATES FEW OR NO CLOUDS BELOW 12,000 FEET WITH NO
      SIGNIFICANT WEATHER AND/OR OBSTRUCTIONS TO VISIBILITY.
      SKY/WX - SKY CONDITION AND SIGNIFICANT WEATHER.
      TMP - AIR TEMPERATURE.     DP    - DEWPOINT TEMPERATURE.
      RH  - RELATIVE HUMIDITY.   PRES  - PRESSURE.
      HI  - HEAT INDEX.          WCI   - WIND CHILL INDEX.

*  THESE STATIONS ARE NOT NWS OR FAA STATIONS AND ARE NOT UNDER
   NWS QUALITY CONTROL.

LAZ038-040-048-061>063-065>067-069-280900-
SOUTHEAST LOUISIANA

CITY           SKY/WX    TMP DP  RH WIND       PRES   REMARKS
N.O. AUDUBON   NOT AVBL
N.O. INTL ARPT PTCLDY    81  76  84 NE3       29.95F
N.O. LAKEFRONT CLEAR     82  76  81 E6        29.96F
N.O. DOWNTOWN*   N/A     82  76  81 CALM      29.96F
RESERVE*         N/A     78  76  94 CALM      29.96S
SLIDELL        CLEAR     76  75  97 N5        29.96S
BATON ROUGE    PTCLDY    75  74  96 CALM      29.97S
BOOTHVILLE     CLEAR     82  77  84 E6        29.95S
BELLE CHASSE   CLEAR     78  77  96 E6        29.95F
BOGALUSA*        N/A     75  72  89 CALM      30.00S
GALLIANO*      SUNNY    N/A N/A N/A E3        29.94F
NEW ROADS*       N/A     73  73  99 CALM      29.98S
GONZALES*        N/A     74  74 100 CALM      29.96S
HAMMOND*       PTCLDY    73  72  94 N3        29.97S FOG
HOUMA*         CLEAR     74  74 100 CALM      29.94F FOG
PORT FOURCHON* MOSUNNY   82  75  78 E12       29.93F

$$

MSZ070-080>082-280900-
SOUTHERN MISSISSIPPI

CITY           SKY/WX    TMP DP  RH WIND       PRES   REMARKS
MCCOMB         PTCLDY    76  73  91 CALM      30.00S
GULFPORT       CLEAR     77  75  93 NE5       29.96F
BILOXI         CLEAR     76  76 100 NE7       29.96F
PASCAGOULA     CLEAR     74  74 100 CALM      29.97F

$$

COASTAL OBSERVATIONS
LAKE AND NEARSHORE STATIONS

STATION/POSITION TIME  TEMP    WIND        PRES    WAVE
                       AIR SEA DIR/SP/G            HT/PER
                 (UTC) (F)     (DEG/KT/KT) (MB)    (FT/S)
PASCAGOULA       0700   78      20/  2/  5 1014.5
WAVELAND YACHT   0700   80 87   60/  8/  8 1015.0
GRAND ISLE       0700   83 87  110/  7/ 11 1014.3
SOUTHWEST PASS   0700          110/ 13/ 17   N/A
NEW CANAL        0700   81 86   80/  3/  4 1013.8
SHELL BEACH      0700   83 87   80/ 10/ 11 1014.6

OFFSHORE STATIONS

STATION/POSITION TIME  TEMP    WIND        PRES    WAVE
                       AIR SEA DIR/SP/G            HT/PER
                 (UTC) (F)     (DEG/KT/KT) (MB)    (FT/S)
64 S DAUPHIN ISL 0700   84 86   90/ 10/ 12 1013.6

$$




USA.gov is the U.S. government's official web portal to all federal, state and local government web resources and services.